FLOCK 4Y 16

导读 | 星芒AI

FLOCK 4Y 16 是由 Planet 公司发射的 Dove 系列小型地球观测卫星之一,属于其 FLOCK 4Y 群组。该卫星主要用于高分辨率光学成像,支持对地表进行频繁重访和实时监测,广泛应用于环境监测、农业管理、灾害评估等领域。FLOCK 4Y 16 采用标准化设计,体积小、成本低,具备快速部署能力,是 Planet 低轨遥感星座的重要组成部分。

基本信息
目录编号:
55040
目录名称:
FLOCK 4Y 16
国际标识:
2023-001AH
轨道中心:
EARTH
卫星名称:
FLOCK 4Y 16
卫星全名:
--
卫星状态:
已陨落 最后检测时间 2025-06-28
发射日期:
2023-01-03 UTC
国别 :
美国 (US)
星等 :
--
轨道信息
数据来源 国际轨道数据
星历时间: 2025-06-23T02:57:44+0800
轨道信息已过期167天
半长轴: 6529.885km
偏心率: 0.0018522
轨道倾角: 97.338°
近地点辐角 269.396°
升交点赤经 250.727°
平近点角 90.522°
近地点: 139.655km
远地点: 163.845km
周期: 87.522分钟
每日圈数: 16.452978
详细信息
使用方式:
暂无